Location: Marsån
(66.4167°N, 22.2833°E)
Time: 09:36:30
(UTC+00:00)

SL-08 R/B - Pass Details

Date: 24 February 2024
Orbit: 944 x 1007 km, 83.0° (Epoch: 20 April)

Event Time Altitude Azimuth Distance (km) Brightness Sun altitude
Rises 16:53:33 0° 193° (SSW) 3,609 7.7 -9.6°
Reaches altitude 10° 16:56:01 10° 194° (SSW) 2,670 7.0 -9.9°
Maximum altitude 17:02:08 88° 110° (ESE) 964 4.5 -10.5°
Drops below altitude 10° 17:08:21 10° 18° (NNE) 2,714 6.7 -11.1°
Sets 17:10:53 0° 18° (NNE) 3,672 7.4 -11.3°
